Waarnemingen

Advertentie
Mijn weer
Kleine Brogel, België (6479): temperatuur & dauwpunt: 16.09.2019 10:00:00 - 22.09.2019 10:00:00 (CEST)Kleine Brogel, België (6479): windsnelheid & windstoten: 16.09.2019 10:00:00 - 22.09.2019 10:00:00 (CEST)Kleine Brogel, België (6479): windrichting: 16.09.2019 10:00:00 - 22.09.2019 10:00:00 (CEST)Kleine Brogel, België (6479): luchtdruk: 16.09.2019 10:00:00 - 22.09.2019 10:00:00 (CEST)Kleine Brogel, België (6479): zicht: 16.09.2019 10:00:00 - 22.09.2019 10:00:00 (CEST)
Datum & Tijd tt [°C] td [°C] ff [km/u] ff [kn] fx [km/u] fx [kn] dd ppp [hPa] vv [km]
22.09.2019 10:00:00 18,4 8,5 4 2 11 6 N 1009,2 20
22.09.2019 09:00:00 14,6 6,6 4 2 11 6 N 1009,2 20
22.09.2019 08:00:00 11,9 5,6 7 4 - - O 1009,6 20
22.09.2019 07:00:00 11,5 5,2 4 2 11 6 N 1009,6 20
22.09.2019 06:00:00 12,1 4,9 7 4 11 6 O 1010,0 20
22.09.2019 05:00:00 11,9 4,8 7 4 - - N 1010,6 20
22.09.2019 04:00:00 11,2 4,4 4 2 7 4 N 1011,0 20
22.09.2019 03:00:00 11,9 4,4 4 2 7 4 N 1011,6 20
22.09.2019 02:00:00 13,7 3,9 4 2 - - N 1011,8 20
22.09.2019 01:00:00 14,9 3,9 4 2 11 6 N 1012,2 20
22.09.2019 00:00:00 16,3 3,8 4 2 7 4 N 1012,7 20
21.09.2019 23:00:00 17,0 3,7 4 2 - - N 1013,3 20
21.09.2019 22:00:00 17,8 2,9 4 2 14 8 N 1013,5 20
21.09.2019 21:00:00 19,3 2,9 7 4 14 8 O 1013,5 20
21.09.2019 20:00:00 20,7 3,7 7 4 - - ONO 1013,3 20
21.09.2019 19:00:00 23,0 3,9 11 6 22 12 O 1013,7 20
21.09.2019 18:00:00 24,4 4,0 11 6 29 16 O 1014,2 20
21.09.2019 17:00:00 25,0 3,9 14 8 - - O 1014,7 20
21.09.2019 16:00:00 24,9 3,4 14 8 29 16 O 1015,2 20
21.09.2019 15:00:00 24,5 4,0 11 6 29 16 O 1016,1 20
21.09.2019 14:00:00 22,9 4,3 14 8 - - O 1016,8 19
21.09.2019 13:00:00 21,6 4,0 11 6 25 14 O 1017,8 20
21.09.2019 12:00:00 20,3 4,7 11 6 22 12 O 1018,6 20
21.09.2019 11:00:00 17,2 4,6 11 6 - - O 1019,1 17
21.09.2019 10:00:00 14,0 4,3 7 4 18 10 O 1020,0 20
21.09.2019 09:00:00 10,6 4,4 4 2 11 6 N 1020,2 20
21.09.2019 08:00:00 6,1 3,5 4 2 - - N 1020,5 20
21.09.2019 07:00:00 6,8 3,4 7 4 11 6 O 1020,5 20
21.09.2019 06:00:00 6,5 3,8 4 2 7 4 N 1021,0 20
21.09.2019 05:00:00 6,2 3,4 4 2 - - N 1021,5 20
21.09.2019 04:00:00 8,1 4,5 7 4 11 6 O 1021,7 20
21.09.2019 03:00:00 7,7 3,9 4 2 11 6 N 1022,3 20
21.09.2019 02:00:00 7,9 4,2 4 2 - - N 1022,8 20
21.09.2019 01:00:00 8,4 4,2 4 2 4 2 N 1023,2 20
21.09.2019 00:00:00 11,0 4,6 4 2 7 4 N 1023,6 20
20.09.2019 23:00:00 12,1 4,9 4 2 - - N 1024,0 20
20.09.2019 22:00:00 12,8 5,1 7 4 14 8 O 1024,5 20
20.09.2019 21:00:00 13,8 5,1 7 4 14 8 ONO 1024,7 20
20.09.2019 20:00:00 15,0 4,8 11 6 - - ONO 1025,0 20
20.09.2019 19:00:00 17,6 3,7 11 6 22 12 ONO 1025,2 20
20.09.2019 18:00:00 19,3 1,9 11 6 22 12 O 1025,5 20
20.09.2019 17:00:00 19,6 1,5 14 8 - - O 1026,0 20
20.09.2019 16:00:00 19,5 2,3 14 8 29 16 ONO 1026,7 20
20.09.2019 15:00:00 19,0 0,4 14 8 29 16 ONO 1027,5 20
20.09.2019 14:00:00 18,7 2,9 14 8 - - O 1028,2 20
20.09.2019 13:00:00 17,5 3,5 11 6 22 12 O 1028,9 20
20.09.2019 12:00:00 16,2 4,1 7 4 14 8 O 1029,5 20
20.09.2019 11:00:00 14,9 4,6 7 4 - - O 1030,0 20
20.09.2019 10:00:00 12,2 5,8 4 2 11 6 N 1030,2 15
20.09.2019 09:00:00 7,6 5,4 4 2 0 0 N 1030,0 8
20.09.2019 08:00:00 3,4 3,4 4 2 - - N 1030,0 18
20.09.2019 07:00:00 3,0 2,8 4 2 0 0 N 1029,7 18
20.09.2019 06:00:00 3,2 2,9 4 2 0 0 N 1030,0 16
20.09.2019 05:00:00 4,0 3,6 4 2 - - N 1030,2 20
20.09.2019 04:00:00 4,5 4,0 4 2 0 0 N 1030,4 4,7
20.09.2019 03:00:00 4,9 4,4 0 0 4 2 N 1030,7 20
20.09.2019 02:00:00 5,3 4,8 0 0 - - N 1031,0 20
20.09.2019 01:00:00 6,6 5,3 4 2 4 2 N 1031,0 20
20.09.2019 00:00:00 6,6 4,6 4 2 0 0 N 1031,2 20
19.09.2019 23:00:00 8,0 5,7 4 2 - - N 1031,4 20
19.09.2019 22:00:00 9,3 6,1 4 2 4 2 N 1031,0 20
19.09.2019 21:00:00 10,3 5,2 4 2 4 2 N 1030,9 20
19.09.2019 20:00:00 12,8 5,5 4 2 - - N 1030,5 20
19.09.2019 19:00:00 15,5 4,8 7 4 18 10 N 1030,2 20
19.09.2019 18:00:00 16,7 4,4 14 8 18 10 NNO 1030,2 20
19.09.2019 17:00:00 17,6 4,3 7 4 - - N 1030,4 20
19.09.2019 16:00:00 18,0 5,6 11 6 22 12 N 1030,7 20
19.09.2019 15:00:00 16,2 5,0 14 8 22 12 NNO 1031,0 20
19.09.2019 14:00:00 17,0 6,2 11 6 - - N 1031,2 20
19.09.2019 13:00:00 15,5 5,7 14 8 25 14 ONO 1031,7 20
19.09.2019 12:00:00 15,1 6,6 4 2 14 8 N 1031,9 20
19.09.2019 11:00:00 14,3 7,0 7 4 - - NO 1031,9 20
19.09.2019 10:00:00 11,7 8,1 4 2 7 4 N 1031,7 18
19.09.2019 09:00:00 9,5 8,0 4 2 4 2 N 1031,2 18
19.09.2019 08:00:00 7,5 6,7 4 2 - - N 1030,7 18
19.09.2019 07:00:00 7,1 6,4 4 2 11 6 N 1030,5 12
19.09.2019 06:00:00 6,6 5,9 4 2 4 2 N 1030,0 19
19.09.2019 05:00:00 5,0 4,4 4 2 - - N 1030,2 10
19.09.2019 04:00:00 5,4 4,9 2 1 0 0 - 1030,2 2,1
19.09.2019 03:00:00 6,0 5,6 4 2 0 0 N 1030,2 9
19.09.2019 02:00:00 6,7 6,2 4 2 - - N 1030,0 20
19.09.2019 01:00:00 8,3 6,6 4 2 11 6 N 1029,9 20
19.09.2019 00:00:00 9,6 6,9 4 2 11 6 N 1029,5 20
18.09.2019 23:00:00 9,9 6,9 4 2 - - N 1029,2 20
18.09.2019 22:00:00 11,1 6,8 7 4 18 10 N 1028,9 20
18.09.2019 21:00:00 12,1 7,1 4 2 18 10 N 1028,5 20
18.09.2019 20:00:00 13,1 6,5 11 6 - - N 1027,9 20
18.09.2019 19:00:00 15,3 6,9 7 4 22 12 N 1027,4 20
18.09.2019 18:00:00 16,0 4,8 11 6 22 12 NNW 1027,2 20
18.09.2019 17:00:00 16,2 4,8 7 4 - - NNW 1027,2 20
18.09.2019 16:00:00 16,6 4,5 11 6 25 14 NW 1027,2 20
18.09.2019 15:00:00 17,8 4,9 4 2 22 12 N 1027,5 20
18.09.2019 14:00:00 16,0 5,0 11 6 - - NNW 1028,0 20
18.09.2019 13:00:00 16,4 5,5 7 4 18 10 N 1028,2 20
18.09.2019 12:00:00 15,0 6,0 7 4 18 10 ONO 1028,4 20
18.09.2019 11:00:00 15,2 7,4 7 4 - - NO 1028,5 20
18.09.2019 10:00:00 13,2 7,6 4 2 7 4 N 1028,2 20
18.09.2019 09:00:00 8,7 6,5 4 2 4 2 N 1028,0 15
18.09.2019 08:00:00 4,0 3,5 4 2 - - N 1027,7 15
18.09.2019 07:00:00 3,0 2,3 4 2 4 2 N 1027,0 10
18.09.2019 06:00:00 4,1 3,8 4 2 4 2 N 1026,9 18
18.09.2019 05:00:00 4,5 4,1 4 2 - - N 1026,9 16
18.09.2019 04:00:00 4,5 4,0 4 2 4 2 N 1026,5 16
18.09.2019 03:00:00 5,0 4,5 4 2 7 4 N 1026,5 20
18.09.2019 02:00:00 5,5 4,6 4 2 - - N 1026,5 20
18.09.2019 01:00:00 5,9 4,8 4 2 4 2 N 1026,4 20
18.09.2019 00:00:00 6,7 4,9 4 2 4 2 N 1026,2 20
17.09.2019 23:00:00 8,3 5,3 4 2 - - N 1025,9 20
17.09.2019 22:00:00 10,5 4,9 4 2 14 8 N 1025,4 20
17.09.2019 21:00:00 11,9 5,2 7 4 14 8 NNW 1024,9 20
17.09.2019 20:00:00 13,5 5,8 7 4 - - NNW 1024,2 20
17.09.2019 19:00:00 15,5 6,8 14 8 32 18 NNW 1023,3 20
17.09.2019 18:00:00 17,9 6,8 11 6 32 18 NW 1022,7 20
17.09.2019 17:00:00 18,0 8,3 18 10 - - NNW 1022,6 20
17.09.2019 16:00:00 19,0 8,8 14 8 32 18 WNW 1022,2 20
17.09.2019 15:00:00 18,2 8,7 14 8 29 16 NW 1022,2 20
17.09.2019 14:00:00 17,7 7,9 14 8 - - W 1022,3 20
17.09.2019 13:00:00 16,9 8,4 11 6 22 12 W 1022,7 20
17.09.2019 12:00:00 15,8 8,8 14 8 22 12 W 1023,0 20
17.09.2019 11:00:00 16,1 10,2 7 4 - - W 1022,7 15
17.09.2019 10:00:00 14,7 10,5 7 4 11 6 N 1022,7 15
17.09.2019 09:00:00 11,9 10,8 4 2 11 6 N 1022,2 15
17.09.2019 08:00:00 8,8 8,7 4 2 - - - 1022,1 0,8
17.09.2019 07:00:00 9,6 9,5 4 2 7 4 - 1021,8 0,3
17.09.2019 06:00:00 10,6 10,5 4 2 4 2 N 1021,7 5
17.09.2019 05:00:00 11,5 11,2 4 2 - - N 1021,5 12
17.09.2019 04:00:00 12,8 12,6 4 2 4 2 - 1021,5 9
17.09.2019 03:00:00 13,0 12,6 4 2 7 4 N 1021,6 6
17.09.2019 02:00:00 13,0 12,6 4 2 - - N 1021,8 10
17.09.2019 01:00:00 13,8 13,1 4 2 7 4 N 1021,8 10
17.09.2019 00:00:00 14,0 13,8 4 2 7 4 N 1021,8 9
16.09.2019 23:00:00 14,0 13,8 0 0 - - N 1021,7 10
16.09.2019 22:00:00 14,1 13,9 4 2 4 2 N 1021,7 10
16.09.2019 21:00:00 14,0 13,9 4 2 4 2 N 1021,2 10
16.09.2019 20:00:00 14,7 14,2 4 2 - - N 1021,1 10
16.09.2019 19:00:00 15,3 14,7 4 2 11 6 N 1020,8 10
16.09.2019 18:00:00 15,1 14,6 7 4 18 10 N 1020,7 8
16.09.2019 17:00:00 15,8 15,4 11 6 - - N 1020,7 2,0
16.09.2019 16:00:00 16,8 15,9 7 4 25 14 N 1020,3 1,8
16.09.2019 15:00:00 19,2 13,6 8 4 18 10 WNW 1020,0 10
16.09.2019 14:00:00 19,4 13,3 7 4 - - WNW 1020,1 17
16.09.2019 13:00:00 19,2 12,6 11 6 18 10 W 1020,2 17
16.09.2019 12:00:00 17,8 11,3 11 6 18 10 W 1020,2 17
16.09.2019 11:00:00 16,6 11,8 11 6 - - WZW 1020,6 17
16.09.2019 10:00:00 15,3 12,1 7 4 11 6 WZW 1020,7 17

tt = temperatuur
td = dauwpunt
ff = windsnelheid
fx = windstoten
dd = windrichting
ppp = luchtdruk
vv = zicht

Weerstations in de omgeving